Regional Weather Roundup
Issued by NWS

Home | Current Version | Previous Version | Text Only | Print | Product List | Glossary Off
Versions: 1 2 3 4 5 6 7 8 9 10 11 12 13 14 15 16 17 18 19 20 21 22 23 24 25 26 27 28 29 30 31 32 33 34 35 36 37 38 39 40 41 42 43 44 45 46 47 48 49 50

000
ASUS45 KBOU 220407
RWRCO

WEATHER ROUNDUP FOR COLORADO
NATIONAL WEATHER SERVICE DENVER/BOULDER CO
1000 PM MDT TUE MAR 21 2017

NOTE: "FAIR" INDICATES FEW OR NO CLOUDS BELOW 12000 FEET WITH NO
SIGNIFICANT WEATHER AND/OR OBSTRUCTIONS TO VISIBILITY.

COZ001>005-013-030-031-220500-
...NORTHWEST COLORADO...

CITY           SKY/WX    TMP DP  RH WIND       PRES   REMARKS
CRAIG          MOCLDY    51  25  36 SW7       30.05S
HAYDEN         FAIR      54  23  30 SE6       30.07S
MEEKER         FAIR      45  25  45 NE7       30.07R
MOUNT WERNER   NOT AVBL
STEAMBOAT SPGS MOCLDY    51  25  36 E7        30.09F
WALDEN         NOT AVBL
$$

COZ006>008-011-220500-
...WEST CENTRAL VALLEYS...

CITY           SKY/WX    TMP DP  RH WIND       PRES   REMARKS
GRAND JUNCTION FAIR      57  26  30 E3        30.01R
MONTROSE       FAIR      50  30  46 SE7       30.10S
EAGLE          MOCLDY    55  30  38 S6        30.14R
RIFLE          FAIR      60  29  30 SE14      30.05R
DELTA          FAIR      61  30  30 N5        30.07S
NUCLA          FAIR      54  23  30 E12       30.13R
$$

COZ017>023-064>068-220500-
...SOUTHWEST COLORADO...

CITY           SKY/WX    TMP DP  RH WIND       PRES   REMARKS
DURANGO        FAIR      50  29  44 CALM      30.17R
CORTEZ         FAIR      44  30  57 CALM      30.10R
PAGOSA SPRINGS FAIR      44  31  59 CALM      30.25R
TELLURIDE      NOT AVBL
WOLF CREEK PAS FAIR      32  23  69 S13       30.47S WCI  22
$$

COZ009-010-012-014-032>034-037-058>063-220500-
...CENTRAL COLORADO...

CITY           SKY/WX    TMP DP  RH WIND       PRES   REMARKS
ASPEN          FAIR      49  33  54 SE7       30.20F
BUENA VISTA    FAIR      48  26  41 W8        30.23S
COPPER MTN     CLOUDY    37  19  48 S16       30.38S
BERTHOUD PASS  CLOUDY    32  21  64 S3        30.38S
COTTONWOOD PAS FAIR      43  28  56 NW8G17    30.29F
GUNNISON       FAIR      43  33  68 NE5       30.25R
KREMMLING      FAIR      55  21  26 CALM      30.16R
LEADVILLE      CLOUDY    39  26  59 S9        30.29R
MONARCH PASS   FAIR      32  23  69 SW23      30.49F WCI  19
SALIDA         FAIR      50  33  53 SE14G21   30.29F
SUNLIGHT       NOT AVBL
WILKERSON PASS CLOUDY    36  25  64 SW5       30.39S
$$

COZ069>075-220500-
...SAN LUIS VALLEY/SANGRE DE CRISTO MOUNTAINS...

CITY           SKY/WX    TMP DP  RH WIND       PRES   REMARKS
ALAMOSA        FAIR      45  25  45 SW9       30.23R
LA VETA PASS   CLOUDY    45  23  42 S10G28    30.36R
SAGUACHE       FAIR      46  27  46 NW3       30.25F
$$

COZ035-036-038>040-220500-
...NORTHERN COLORADO FRONT RANGE...

CITY           SKY/WX    TMP DP  RH WIND       PRES   REMARKS
DENVER INTL AP FAIR      49  34  56 SE14      30.11S
DMNS CITY PARK   N/A     50  34  54 CALM      30.10F
AURORA         PTCLDY    53  36  52 S17       30.12S
FRONT RANGE AP NOT AVBL
ERIE MUNI ARPT FAIR      46  33  60 CALM      30.10S
BOULDER MUN AP FAIR      52  34  50 S5        30.09S
CENTENNIAL     FAIR      52  35  52 S12       30.12S
BROOMFIELD     CLOUDY    50  34  53 CALM      30.13R
FORT COLLINS   FAIR      49  37  63 N8        30.10R
LONGMONT       FAIR      54  37  52 NE6       30.11S
$$

COZ041-046-047-076>085-087-088-220500-
...PIKES PEAK/PALMER DIVIDE AND SOUTHERN FOOTHILLS...

CITY           SKY/WX    TMP DP  RH WIND       PRES   REMARKS
COLO. SPRINGS  MOCLDY    46  34  62 SE12      30.24R
A. F. ACADEMY  FAIR      46  35  65 S14       30.23R
SCHRIEVER AFB  FAIR      42  34  72 E8        30.25R
ELLICOTT         N/A    N/A N/A N/A SE13      30.22R
FALCON         FAIR      40  33  76 S10       30.26R
FORT CARSON    FAIR      46  35  63 SE6       30.23R
LIMON          FAIR      42  33  70 SE13      30.20S
MONUMENT HILL  FAIR      41  34  75 S23G31    30.20S
TRINIDAD       FAIR      56  35  45 SE10      30.15R
$$

COZ042>045-048>051-090-091-220500-
...NORTHEAST COLORADO...

CITY           SKY/WX    TMP DP  RH WIND       PRES   REMARKS
GREELEY ARPT   FAIR      51  36  56 SE18G24   30.11S
AKRON          FAIR      45  25  45 SE26G32   30.18F
BURLINGTON     FAIR      44  28  53 SE12      30.25R
WRAY           NOT AVBL
STERLING       FAIR      46  27  46 SE20G28   30.18S
HOLYOKE        FAIR      43  32  65 E23       30.25R
FORT MORGAN    FAIR      47  30  51 E13G18    30.16S
$$

COZ086-089-092>099-220500-
...SOUTHEAST COLORADO...

CITY           SKY/WX    TMP DP  RH WIND       PRES   REMARKS
PUEBLO         FAIR      52  36  54 E14       30.19R
LA JUNTA       FAIR      52  35  52 E24G30    30.17R
LAMAR          FAIR      50  32  50 E18G24    30.21R
SPRINGFIELD      N/A     49  36  61 E14       30.22R
$$



USA.gov is the U.S. government's official web portal to all federal, state and local government web resources and services.